Retour au catalogue

ANSAT-1

ActifScienceSSO
NORAD 67262·PAYLOAD·🇷🇺 Russia
Ce nom de satellite n'a pas encore été confirmé par des sources officielles.

Lancé Dec 28, 2025 depuis Vostochny Cosmodrome

Loading…

Prochains Passages (prochaines 24 heures)

TLE

FraisSource: Space-Track

Époque: Sep 14, 2026, 10:53 UTC

1 67262U 25313Q   26257.45392749  .00005787  00000-0  23190-3 0  9997
2 67262  97.3864 331.0769 0014780  59.4657 300.8038 15.25319397 39567

Suivez ANSAT-1 en temps réel avec AllMySat

Download on the App Store